Altoona, PA

5:44 PM EST on November 11, 2019 (GMT -0500)
Altoona-Blair County

Weather History for KAOO - July, 2019

Change the Weather History Date:

Wednesday, July 31, 2019

  Actual Average Record
Temperature  
Mean Temperature 72 °F 71 °F  
Max Temperature 78 °F 81 °F 97 °F (1999)
Min Temperature 65 °F 60 °F 47 °F (1966)
Degree Days  
Heating Degree Days 0 0  
Month to date heating degree days 0 1  
Since 1 June heating degree days 38 68  
Since 1 July heating degree days 0 10  
Cooling Degree Days 7 6  
Month to date cooling degree days 274 185  
Year to date cooling degree days 462 327  
Since 1 June cooling degree days 393 294  
Growing Degree Days 21 (Base 50)    
Moisture  
Dew Point 66 °F    
Average Humidity 81    
Maximum Humidity 93    
Minimum Humidity 69    
Precipitation  
Precipitation 0.22 in 0.10 in 0.88 in (1994)
Month to date precipitation 3.96 3.26  
Year to date precipitation 26.90 20.92  
Sea Level Pressure  
Sea Level Pressure 30.08 in    
Wind  
Wind Speed 3 mph (SW)    
Max Wind Speed 9 mph    
Max Gust Speed 11 mph    
Visibility 8 miles    
Events Rain , Thunderstorm    
T = Trace of Precipitation, MM = Missing Value Source: NWS Daily Summary

Daily Weather History Graph

Daily Weather History Graph

Search for Another Location

Airport or City:

Astronomy

Jul. 31, 2019 Rise Set
Actual Time 6:09 AM EDT 8:28 PM EDT
Civil Twilight 5:39 AM EDT 8:59 PM EDT
Nautical Twilight 5:01 AM EDT 9:37 PM EDT
Astronomical Twilight 4:19 AM EDT 10:18 PM EDT
Moon 5:20 AM EDT (7/31) 8:26 PM EDT (7/31)
Length of Visible Light 15h 20m
Length of Day
14h 19m
Waning Crescent, 0% of the Moon is Illuminated
Jul 31
Waning Crescent
Jul 31
New
Aug 7
First Quarter
Aug 15
Full
Aug 23
Last Quarter

Hourly Weather History & Observations

Time (EDT) Temp. Dew Point Humidity Pressure Visibility Wind Dir Wind Speed Gust Speed Precip Events Conditions
12:53 AM 70.0 °F 66.9 °F 90% 30.02 in 8.0 mi WSW 3.5 mph - N/A   Clear
1:53 AM 69.1 °F 66.9 °F 93% 30.04 in 5.0 mi Calm Calm - N/A   Clear
2:24 AM 70.0 °F 66.9 °F 90% 30.08 in 5.0 mi West 5.8 mph - 0.00 in Rain , Thunderstorm Light Rain
2:43 AM 70.0 °F 66.9 °F 90% 30.09 in 2.5 mi WSW 4.6 mph - 0.05 in Rain , Thunderstorm Rain
2:51 AM 69.8 °F 66.2 °F 88% 30.09 in 1.8 mi WSW 5.8 mph - 0.10 in Rain , Thunderstorm Heavy Rain
2:53 AM 70.0 °F 66.9 °F 90% 30.06 in 2.0 mi WSW 5.8 mph - 0.10 in Rain , Thunderstorm Heavy Rain
2:56 AM 70.0 °F 66.9 °F 90% 30.08 in 2.0 mi WSW 5.8 mph - 0.01 in Rain , Thunderstorm Thunderstorms and Rain
3:13 AM 69.1 °F 66.9 °F 93% 30.07 in 3.0 mi WSW 6.9 mph - 0.06 in Rain , Thunderstorm Rain
3:25 AM 68.0 °F 66.0 °F 93% 30.07 in 2.5 mi South 4.6 mph - 0.10 in Rain Rain
3:36 AM 68.0 °F 66.0 °F 93% 30.06 in 4.0 mi Calm Calm - 0.12 in Rain Light Rain
3:53 AM 66.9 °F 64.9 °F 93% 30.03 in 6.0 mi Calm Calm - 0.12 in Rain Light Rain
4:53 AM 66.9 °F 64.0 °F 90% 30.04 in 6.0 mi Calm Calm - 0.00 in   Partly Cloudy
5:53 AM 66.0 °F 64.0 °F 93% 30.05 in 6.0 mi Calm Calm - N/A   Clear
6:34 AM 64.9 °F 63.0 °F 93% 30.09 in 2.5 mi Calm Calm - N/A   Partly Cloudy
6:45 AM 64.9 °F 63.0 °F 93% 30.09 in 3.0 mi Calm Calm - N/A   Partly Cloudy
6:53 AM 64.9 °F 63.0 °F 93% 30.07 in 2.5 mi Calm Calm - N/A   Scattered Clouds
7:22 AM 66.0 °F 64.0 °F 93% 30.10 in 4.0 mi Calm Calm - N/A   Scattered Clouds
7:53 AM 68.0 °F 64.0 °F 87% 30.08 in 10.0 mi Calm Calm - N/A   Mostly Cloudy
8:20 AM 70.0 °F 64.9 °F 84% 30.11 in 10.0 mi Calm Calm - N/A   Scattered Clouds
8:53 AM 70.0 °F 64.9 °F 84% 30.09 in 10.0 mi West 3.5 mph - N/A   Clear
9:53 AM 73.0 °F 64.0 °F 73% 30.10 in 10.0 mi NNW 4.6 mph - N/A   Mostly Cloudy
10:18 AM 73.0 °F 64.0 °F 73% 30.13 in 10.0 mi Variable 3.5 mph - N/A   Mostly Cloudy
10:35 AM 73.9 °F 64.0 °F 71% 30.13 in 10.0 mi Calm Calm - N/A   Mostly Cloudy
10:46 AM 73.9 °F 64.0 °F 71% 30.13 in 10.0 mi NW 5.8 mph - N/A   Mostly Cloudy
10:53 AM 73.0 °F 64.0 °F 73% 30.11 in 10.0 mi Variable 3.5 mph - N/A   Overcast
11:53 AM 75.0 °F 64.9 °F 71% 30.10 in 10.0 mi Calm Calm - N/A   Mostly Cloudy
12:07 PM 75.0 °F 64.9 °F 71% 30.13 in 10.0 mi SSW 3.5 mph - N/A   Scattered Clouds
12:24 PM 75.9 °F 64.9 °F 69% 30.13 in 10.0 mi Variable 3.5 mph - N/A   Mostly Cloudy
12:53 PM 75.9 °F 66.0 °F 71% 30.09 in 10.0 mi Calm Calm - N/A   Mostly Cloudy
1:10 PM 77.0 °F 66.0 °F 69% 30.12 in 10.0 mi Calm Calm - N/A   Mostly Cloudy
1:26 PM 77.0 °F 66.0 °F 69% 30.12 in 10.0 mi SSE 3.5 mph - N/A   Mostly Cloudy
1:36 PM 77.0 °F 66.9 °F 71% 30.12 in 10.0 mi SSE 3.5 mph - N/A   Mostly Cloudy
1:53 PM 77.0 °F 66.0 °F 69% 30.09 in 10.0 mi South 3.5 mph - N/A   Mostly Cloudy
2:05 PM 75.9 °F 66.9 °F 74% 30.11 in 10.0 mi SSE 4.6 mph - N/A   Scattered Clouds
2:53 PM 75.9 °F 66.9 °F 74% 30.09 in 10.0 mi SSW 5.8 mph - N/A   Scattered Clouds
3:53 PM 75.0 °F 66.9 °F 76% 30.07 in 10.0 mi WSW 6.9 mph - N/A   Clear
4:53 PM 75.9 °F 66.9 °F 74% 30.04 in 10.0 mi SSW 6.9 mph - N/A   Clear
5:53 PM 78.1 °F 68.0 °F 71% 30.05 in 10.0 mi Variable 6.9 mph - N/A   Clear
6:53 PM 77.0 °F 68.0 °F 74% 30.05 in 10.0 mi WSW 5.8 mph - N/A   Clear
7:53 PM 75.0 °F 68.0 °F 79% 30.03 in 10.0 mi SSW 4.6 mph - N/A   Clear
8:53 PM 73.0 °F 66.0 °F 79% 30.07 in 10.0 mi West 3.5 mph - N/A   Scattered Clouds
9:53 PM 70.0 °F 66.0 °F 87% 30.07 in 10.0 mi West 3.5 mph - N/A   Scattered Clouds
10:53 PM 68.0 °F 64.9 °F 90% 30.09 in 8.0 mi SE 3.5 mph - N/A   Clear
11:53 PM 69.1 °F 64.9 °F 87% 30.08 in 8.0 mi West 4.6 mph - N/A   Clear